Location: Ago
(8.4667°N, 4.4167°E)
Time: 10:51:12
(UTC+00:00)

Cosmos 1743 - Visible Passes

Search period start: 23 September 2020 00:00
Search period end: 03 October 2020 00:00
Orbit: 509 x 528 km, 82.5° (Epoch: 22 September)

Date Brightness Start Highest point End Pass type
(mag) Time Alt. Az. Time Alt. Az. Time Alt. Az.
23 Sep 4.7 04:25:13 10° NNE 04:28:38 32° E 04:32:04 10° SSE visible
24 Sep 5.1 04:11:22 10° NNE 04:14:33 25° E 04:17:45 10° SE visible
25 Sep 5.4 03:57:35 10° NE 04:00:28 21° E 04:03:22 10° SE visible
26 Sep 5.7 03:43:54 10° NE 03:46:23 17° E 03:48:52 10° SE visible
27 Sep 5.9 03:30:24 10° NE 03:32:18 13° E 03:34:12 10° ESE visible
27 Sep 4.2 05:05:20 10° NW 05:07:48 17° W 05:10:16 10° SW visible
28 Sep 6.1 03:17:23 10° ENE 03:18:13 11° E 03:19:02 10° E visible
28 Sep 3.9 04:50:50 10° NW 04:53:44 21° W 04:56:37 10° SW visible
29 Sep 3.6 04:36:52 12° NW 04:39:40 25° W 04:42:53 10° SSW visible
30 Sep 4.0 04:27:07 23° SW 04:27:07 23° SW 04:29:03 10° SSW visible
